Weather History for West Palm Beach, FL

Change the Weather History Date:

Monday, August 4, 2014

  Actual Average Record
Temperature  
Mean Temperature 82 °F 83 °F  
Max Temperature 88 °F 91 °F 97 °F (1970)
Min Temperature 75 °F 76 °F 69 °F (1936)
Degree Days  
Heating Degree Days 0 0  
Month to date heating degree days 0 0  
Since 1 June heating degree days 0 0  
Since 1 July heating degree days 0 0  
Cooling Degree Days 17 18  
Month to date cooling degree days 73 72  
Year to date cooling degree days 2477 2220  
Since 1 June cooling degree days 1125 1111  
Growing Degree Days 30 (Base 50)    
Moisture  
Dew Point 74 °F    
Average Humidity 79    
Maximum Humidity 94    
Minimum Humidity 63    
Precipitation  
Precipitation 1.07 in 0.22 in 2.62 in (1936)
Month to date precipitation 2.62 0.88  
Year to date precipitation 36.05 33.65  
Snow  
Snow 0.00 in - - ()
Month to date snowfall 0.0  
Since 1 June snowfall 0.0  
Since 1 July snowfall 0.0  
Snow Depth 0.00 in    
Sea Level Pressure  
Sea Level Pressure 29.95 in    
Wind  
Wind Speed 7 mph (SW)    
Max Wind Speed 18 mph    
Max Gust Speed 22 mph    
Visibility 8 miles    
Events Fog , Rain , Thunderstorm    
T = Trace of Precipitation, MM = Missing Value Source: NWS Daily Summary

Daily Weather History Graph

Daily Weather History Graph

Search for Another Location

Airport:

Trip Planner

Search our weather history database for the weather conditions in past years. The results will help you decide how hot, cold, wet, or windy it might be!

Date:

Astronomy

Aug. 04, 2014 Rise Set
Actual Time 6:46 AM EDT 8:05 PM EDT
Civil Twilight 6:21 AM EDT 8:30 PM EDT
Nautical Twilight 5:52 AM EDT 9:00 PM EDT
Astronomical Twilight 5:21 AM EDT 9:30 PM EDT
Moon 2:18 PM EDT (8/4) 12:47 AM EDT (8/4)
Length of Visible Light 14h 08m
Length of Day
13h 19m
First Quarter, 57% of the Moon is Illuminated
Aug 4
First Quarter
Aug 10
Full
Aug 17
Last Quarter
Aug 25
New
Sep 2
First Quarter

Hourly Weather History & Observations

Time (EDT) Temp. Heat Index Dew Point Humidity Pressure Visibility Wind Dir Wind Speed Gust Speed Precip Events Conditions
12:34 AM 75.0 °F - 73.0 °F 94% 29.94 in 10.0 mi South 9.2 mph - 0.11 in Rain Rain
12:53 AM 75.0 °F - 73.0 °F 94% 29.93 in 10.0 mi South 9.2 mph - 0.14 in Rain Light Rain
1:53 AM 75.0 °F - 72.0 °F 90% 29.91 in 10.0 mi South 9.2 mph - 0.03 in Rain Light Rain
2:53 AM 75.0 °F - 73.0 °F 94% 29.90 in 10.0 mi South 8.1 mph - 0.02 in Rain Light Rain
3:53 AM 75.0 °F - 73.0 °F 94% 29.88 in 10.0 mi SSW 3.5 mph - 0.00 in   Overcast
4:53 AM 75.0 °F - 73.9 °F 96% 29.89 in 10.0 mi NW 3.5 mph - 0.00 in Rain Light Rain
5:53 AM 75.9 °F - 73.9 °F 94% 29.91 in 10.0 mi SSE 5.8 mph - 0.00 in   Overcast
6:53 AM 75.0 °F - 73.9 °F 96% 29.93 in 10.0 mi West 5.8 mph - N/A   Overcast
7:53 AM 75.9 °F - 73.9 °F 94% 29.94 in 10.0 mi SW 6.9 mph - N/A   Mostly Cloudy
8:53 AM 79.0 °F - 73.0 °F 82% 29.95 in 10.0 mi SW 6.9 mph - N/A   Mostly Cloudy
9:53 AM 82.0 °F 87.9 °F 73.9 °F 76% 29.96 in 10.0 mi West 5.8 mph - N/A   Mostly Cloudy
10:53 AM 84.0 °F 91.9 °F 75.0 °F 74% 29.97 in 10.0 mi WSW 5.8 mph - N/A   Mostly Cloudy
11:53 AM 86.0 °F 95.1 °F 75.0 °F 70% 29.96 in 10.0 mi West 9.2 mph - N/A   Mostly Cloudy
12:53 PM 87.1 °F 95.4 °F 73.9 °F 65% 29.94 in 10.0 mi West 8.1 mph - N/A   Mostly Cloudy
1:20 PM 82.0 °F 87.4 °F 73.0 °F 74% 29.94 in 10.0 mi SSE 13.8 mph - N/A Thunderstorm Thunderstorm
1:27 PM 81.0 °F 85.8 °F 73.0 °F 77% 29.94 in 10.0 mi Calm Calm - 0.00 in Rain , Thunderstorm Light Thunderstorms and Rain
1:53 PM 80.1 °F 85.1 °F 75.0 °F 85% 29.95 in 4.0 mi SE 10.4 mph - 0.09 in Rain , Thunderstorm Heavy Thunderstorms and Rain
2:06 PM 79.0 °F - 73.9 °F 84% 29.96 in 1.0 mi South 13.8 mph 19.6 mph 0.09 in Rain , Thunderstorm Heavy Thunderstorms and Rain
2:13 PM 78.1 °F - 75.0 °F 90% 29.96 in 0.5 mi South 6.9 mph 19.6 mph 0.27 in Fog , Rain , Thunderstorm Heavy Thunderstorms and Rain
2:20 PM 77.0 °F - 75.0 °F 94% 29.97 in 3.0 mi Calm Calm - 0.46 in Rain , Thunderstorm Heavy Thunderstorms and Rain
2:53 PM 77.0 °F - 73.9 °F 90% 29.96 in 10.0 mi East 4.6 mph - 0.48 in Rain , Thunderstorm Light Thunderstorms and Rain
3:18 PM 79.0 °F - 75.0 °F 88% 29.97 in 10.0 mi WNW 3.5 mph - 0.01 in   Mostly Cloudy
3:53 PM 79.0 °F - 75.0 °F 88% 29.97 in 5.0 mi Variable 3.5 mph - 0.03 in Rain Light Rain
4:12 PM 75.9 °F - 73.0 °F 91% 29.98 in 3.0 mi South 11.5 mph 21.9 mph 0.04 in Rain , Thunderstorm Thunderstorms and Rain
4:27 PM 75.0 °F - 73.0 °F 94% 29.98 in 2.0 mi SSW 12.7 mph - 0.13 in Rain , Thunderstorm Heavy Thunderstorms and Rain
4:53 PM 75.0 °F - 73.0 °F 94% 29.97 in 7.0 mi SW 8.1 mph - 0.33 in Rain , Thunderstorm Light Thunderstorms and Rain
5:18 PM 75.0 °F - 73.0 °F 94% 29.98 in 7.0 mi West 6.9 mph - 0.03 in Rain Light Rain
5:53 PM 75.9 °F - 73.9 °F 94% 29.97 in 7.0 mi WSW 8.1 mph - 0.08 in Rain Light Rain
6:28 PM 77.0 °F - 75.0 °F 94% 29.95 in 7.0 mi SW 9.2 mph - 0.00 in Rain Light Rain
6:53 PM 75.9 °F - 73.9 °F 94% 29.94 in 7.0 mi SW 8.1 mph - 0.01 in   Mostly Cloudy
7:45 PM 75.9 °F - 73.9 °F 94% 29.93 in 10.0 mi SW 9.2 mph - N/A   Mostly Cloudy
7:53 PM 75.9 °F - 73.9 °F 94% 29.93 in 10.0 mi WSW 10.4 mph - N/A   Mostly Cloudy
8:02 PM 75.9 °F - 73.9 °F 94% 29.94 in 10.0 mi SW 10.4 mph - N/A   Mostly Cloudy
8:38 PM 75.0 °F - 73.0 °F 94% 29.96 in 10.0 mi SW 9.2 mph - N/A   Mostly Cloudy
8:53 PM 75.9 °F - 73.9 °F 94% 29.97 in 10.0 mi SW 6.9 mph - N/A   Mostly Cloudy
9:53 PM 75.9 °F - 73.0 °F 91% 29.99 in 10.0 mi SSW 9.2 mph - N/A   Mostly Cloudy
10:53 PM 75.9 °F - 73.0 °F 91% 30.00 in 10.0 mi WSW 5.8 mph - N/A   Mostly Cloudy
11:53 PM 75.9 °F - 73.0 °F 91% 30.02 in 10.0 mi SW 6.9 mph - N/A   Overcast